Retour au catalogue

STARLINK-31825

ActifCommunicationsVLEO
NORAD 60056·PAYLOAD·🇺🇸 United States

Lancé Jun 8, 2024 depuis Vandenberg Space Force Base

Loading…

Prochains Passages (prochaines 24 heures)

TLE

FraisSource: CelesTrak SupGP

Époque: Sep 14, 2026, 22:28 UTC

1 60056C 24112U   26257.93659722  .00047348  00000+0  13991-2 0  2579
2 60056  53.1571 277.6953 0001242  91.7511 104.9081 15.34363083    13

Suivez STARLINK-31825 en temps réel avec AllMySat

Download on the App Store